[[{"header":{"parameterUnit":"m.s-1","parameterCategory":1,"la1":30.2991,"la2":30.254,"lo1":-89.0895,"lo2":-89.0444,"dy":0.0017,"dx":0.0017,"nx":28,"ny":28,"refTime":"2024-06-25T21:00:00:Z","depth":0,"parameterNumber":2,"parameterNumberName":"U-component_of_WINDS"},"data":[0,0,0,0,0,0,0,0,0,0,0,0,0,0,0,0,0,0,0,0,0,0,0,0,0,0,0,0,0,0,0,0,0,0,0,0,0,0,0,0,0,0,0,0,0,0,0,0,0,0,0,0,0,0,0,0,0,0,2.1306,2.1305,0,2.1272,2.1271,2.1271,2.1167,2.1165,2.1163,2.1161,2.113,2.1132,2.1133,0,0,0,0,0,0,0,0,0,0,0,0,0,2.1286,2.1287,2.1306,2.1305,2.1305,2.1272,2.1271,2.1271,2.1168,2.1165,2.1162,2.116,2.113,2.1131,2.1133,0,0,0,0,0,0,0,0,0,0,0,0,0,2.1278,2.1287,2.1306,2.1249,2.1244,2.1272,2.1271,2.1271,2.1168,2.1165,2.1161,2.1158,2.1129,2.1131,2.1133,2.1215,0,0,2.1139,2.114,0,0,0,0,0,0,0,0,2.1278,2.1278,2.1258,2.1253,2.1247,2.122,2.1253,2.1252,2.1169,2.1197,2.1161,2.1157,2.1163,2.1162,2.1164,2.1213,2.1212,2.114,2.1141,2.1142,2.1142,0,0,0,0,0,0,0,2.1279,2.1279,2.1292,2.1258,2.1251,2.1227,2.1222,2.1252,2.12,2.1194,2.1187,2.1184,2.116,2.1162,2.1162,2.1211,2.114,2.1141,2.1143,2.1143,2.1328,2.1332,0,0,0,0,0,0,2.1287,2.128,2.1293,2.1291,2.1254,2.123,2.1225,2.1232,2.1199,2.1191,2.1187,2.1179,2.116,2.116,2.1161,2.1256,2.1142,2.1144,2.1145,2.1324,2.1329,2.1333,0,0,0,0,0,0,2.1287,2.1289,2.1295,2.1284,2.1283,2.1234,2.1244,2.1234,2.1236,2.1194,2.1184,2.1199,2.1158,2.1158,2.1202,2.1253,2.1144,2.1146,2.132,2.1326,2.1331,2.1445,0,0,0,0,0,0,2.1287,2.129,2.1319,2.1285,2.1284,2.1336,2.1247,2.1235,2.1239,2.1228,2.1202,2.1195,2.1155,2.12,2.1204,2.1254,2.1148,2.1315,2.1323,2.1329,2.1437,2.1454,2.1469,0,0,0,0,0,2.1286,2.1353,2.1321,2.1323,2.1319,2.1339,2.1338,2.129,2.1243,2.1273,2.1247,2.1195,2.1246,2.1205,2.1209,2.126,2.1312,2.132,2.1329,2.1429,2.145,2.1468,0,0,0,0,0,0,2.1395,2.1347,2.1311,2.1369,2.1359,2.1321,2.1358,2.1313,2.1317,2.1308,2.1248,2.1243,2.1297,2.1282,2.1237,2.1338,2.1271,2.128,2.1346,2.1366,2.1381,2.1385,2.1149,0,0,0,0,0,2.1426,2.1444,2.1402,2.1457,2.1453,2.1407,2.1413,2.1377,2.1364,2.136,2.1336,2.1328,2.1342,2.1352,2.1363,2.1433,2.1427,2.147,2.1486,2.15,2.151,2.1548,2.1568,2.136,2.136,2.136,0,0,2.1489,2.1465,2.1481,2.1478,2.1466,2.1488,2.1404,2.1431,2.1447,2.1364,2.1405,2.1388,2.1374,2.1432,2.1457,2.1422,2.1565,2.151,2.1521,2.1524,2.1559,2.1579,2.1596,2.1366,2.1365,2.1364,0,0,2.1617,2.16,2.1645,2.1634,2.1616,2.1585,2.1596,2.1565,2.155,2.1589,2.1528,2.1548,2.1572,2.1566,2.1566,2.1692,2.1646,2.1697,2.1782,2.182,2.1837,2.1851,2.1898,2.1916,2.1706,2.1707,2.1707,0,2.1699,2.1729,2.1674,2.1705,2.1706,2.1631,2.1677,2.167,2.1657,2.1661,2.1621,2.1652,2.1637,2.1694,2.1725,2.1726,2.1739,2.1701,2.1838,2.1852,2.1865,2.191,2.1927,2.1713,2.1712,2.1712,2.1711,0,2.1832,2.1854,2.1892,2.1881,2.1887,2.1925,2.1877,2.189,2.1853,2.1826,2.1869,2.1848,2.1854,2.1864,2.1829,2.1917,2.1896,2.1848,2.178,2.1892,2.1933,2.195,2.1722,2.172,2.1718,2.1717,0,0,2.2029,2.1986,2.2002,2.1997,2.1971,2.1988,2.2024,2.2028,2.2042,2.2035,2.2066,2.2088,2.2044,2.2045,2.2007,2.2041,2.2145,2.1989,2.1988,2.2021,2.2244,2.2283,2.2303,2.2113,2.2116,2.2119,2.2246,0,2.2152,2.221,2.2162,2.223,2.2251,2.2179,2.2211,2.22,2.2176,2.2192,2.2165,2.2183,2.2122,2.2122,2.2152,2.2126,2.219,2.2116,2.2144,2.2146,2.2153,2.2324,2.2364,2.2486,2.2262,2.2265,2.2266,0,2.2304,2.2304,2.2374,2.2346,2.2353,2.2382,2.2383,2.2398,2.2385,2.2365,2.2366,2.232,2.2355,2.2286,2.2335,2.2286,2.2294,2.2284,2.2287,2.2291,2.2215,2.2335,2.2523,2.2543,2.2291,2.2289,2.2287,0,2.2445,2.2462,2.2506,2.2504,2.2471,2.2494,2.2481,2.2464,2.2471,2.2472,2.2476,2.2482,2.2486,2.2492,2.245,2.2403,2.2506,2.2433,2.2493,2.2495,2.252,2.252,2.2716,2.2521,2.2521,2.252,2.252,0,2.2589,2.2636,2.2569,2.2597,2.2648,2.2591,2.2643,2.2624,2.261,2.2634,2.2572,2.2596,2.2537,2.2556,2.2523,2.2571,2.2572,2.2559,2.2551,2.2567,2.2569,2.2573,2.2565,2.2525,2.2524,2.2523,2.2522,0,2.2755,2.2712,2.2757,2.2722,2.2714,2.2754,2.2724,2.275,2.2721,2.2753,2.2757,2.2713,2.2732,2.269,2.2703,2.2681,2.2749,2.2726,2.2754,2.2748,2.2812,2.2808,2.302,2.3046,2.2833,2.2835,2.2836,0,2.2852,2.2886,2.2855,2.2866,2.2857,2.2875,2.2881,2.2828,2.2837,2.2825,2.2853,2.2866,2.2874,2.2908,2.2879,2.2889,2.2867,2.2941,2.2869,2.2884,2.2872,2.2872,2.2876,2.2957,2.296,2.2962,2.2963,0,2.3028,2.3006,2.3016,2.302,2.3029,2.3029,2.3026,2.3039,2.2981,2.2995,2.3013,2.302,2.3033,2.3049,2.3052,2.3041,2.2995,2.2986,2.3001,2.3019,2.3035,2.303,2.2798,2.2982,2.298,2.2979,2.2978,2.2977,2.3164,2.3192,2.3175,2.3189,2.3181,2.3179,2.3201,2.3176,2.3189,2.3195,2.3163,2.3189,2.3176,2.3176,2.317,2.3191,2.3158,2.3179,2.3185,2.3192,2.3204,2.303,2.3191,2.319,2.319,2.3189,2.3189,0,2.334,2.3326,2.3339,2.3336,2.3348,2.33,2.3294,2.3308,2.3331,2.3322,2.3331,2.3354,2.3368,2.334,2.335,2.3373,2.3352,2.3378,2.3377,2.3376,2.3231,2.3218,2.3395,2.3395,2.3395,2.3395,2.3395,2.3395,2.3433,2.3479,2.3454,2.3495,2.348,2.3504,2.3505,2.3504,2.3497,2.3524,2.3536,2.3516,2.3501,2.351,2.3522,2.3513,2.3521,2.3556,2.354,2.3406,2.3386,2.3367,2.3355,2.3557,2.3557,2.3684,2.3685,2.3686]},{"header":{"parameterUnit":"m.s-1","parameterCategory":1,"la1":30.2991,"la2":30.254,"lo1":-89.0895,"lo2":-89.0444,"dy":0.0017,"dx":0.0017,"nx":28,"ny":28,"refTime":"2024-06-25T21:00:00:Z","depth":0,"parameterNumber":3,"parameterNumberName":"V-component_of_WINDS"},"data":[0,0,0,0,0,0,0,0,0,0,0,0,0,0,0,0,0,0,0,0,0,0,0,0,0,0,0,0,0,0,0,0,0,0,0,0,0,0,0,0,0,0,0,0,0,0,0,0,0,0,0,0,0,0,0,0,0,0,1.448,1.4481,0,1.4553,1.4554,1.4555,1.4589,1.4589,1.4589,1.4589,1.4663,1.4664,1.4666,0,0,0,0,0,0,0,0,0,0,0,0,0,1.437,1.4372,1.448,1.4481,1.4482,1.4553,1.4554,1.4555,1.4589,1.4589,1.4589,1.4589,1.4662,1.4664,1.4667,0,0,0,0,0,0,0,0,0,0,0,0,0,1.4428,1.4372,1.448,1.4508,1.4511,1.4553,1.4554,1.4555,1.4589,1.4589,1.4589,1.4589,1.4661,1.4664,1.4667,1.4686,0,0,1.4676,1.4677,0,0,0,0,0,0,0,0,1.4424,1.4432,1.4503,1.4506,1.451,1.4562,1.4542,1.4599,1.4589,1.456,1.4589,1.4589,1.4629,1.4635,1.4648,1.4689,1.4693,1.4676,1.4678,1.4679,1.468,0,0,0,0,0,0,0,1.442,1.4429,1.4509,1.4504,1.4508,1.4516,1.4524,1.4553,1.4594,1.4562,1.4565,1.4573,1.4631,1.4645,1.465,1.4694,1.4676,1.4679,1.4681,1.4682,1.4754,1.4754,0,0,0,0,0,0,1.4412,1.4425,1.4507,1.4511,1.4466,1.4518,1.4527,1.4545,1.4593,1.4601,1.4573,1.4574,1.464,1.4647,1.4653,1.4679,1.4679,1.4682,1.4684,1.4754,1.4754,1.4754,0,0,0,0,0,0,1.4409,1.4419,1.4504,1.4469,1.448,1.452,1.454,1.4547,1.4561,1.4602,1.4609,1.4581,1.4641,1.4649,1.4678,1.4682,1.4683,1.4686,1.4754,1.4754,1.4754,1.473,0,0,0,0,0,0,1.4406,1.4418,1.4426,1.4469,1.4482,1.4528,1.454,1.4548,1.4567,1.4569,1.4611,1.4617,1.4641,1.4673,1.4681,1.4686,1.4688,1.4754,1.4754,1.4754,1.4731,1.473,1.4729,0,0,0,0,0,1.4402,1.4416,1.4426,1.4436,1.4493,1.4528,1.4535,1.4563,1.4567,1.4575,1.4601,1.4616,1.468,1.4676,1.4684,1.4691,1.4753,1.4754,1.4754,1.4731,1.473,1.4729,0,0,0,0,0,0,1.4372,1.4422,1.4434,1.4462,1.449,1.4534,1.4545,1.456,1.4588,1.4589,1.4621,1.463,1.4656,1.4676,1.4671,1.4712,1.4718,1.472,1.4698,1.4697,1.4696,1.469,1.4691,0,0,0,0,0,1.4369,1.4393,1.4435,1.4456,1.447,1.4505,1.4521,1.454,1.457,1.4582,1.461,1.4639,1.4665,1.4682,1.4709,1.4734,1.4743,1.4742,1.4741,1.474,1.4741,1.4756,1.4756,1.4755,1.4755,1.4755,0,0,1.4362,1.4392,1.4406,1.4451,1.4475,1.4499,1.4515,1.4539,1.4558,1.4586,1.4615,1.4636,1.467,1.4697,1.471,1.4715,1.4744,1.474,1.4739,1.4741,1.4757,1.4757,1.4757,1.4755,1.4755,1.4755,0,0,1.4362,1.4388,1.4408,1.4432,1.4468,1.4492,1.4496,1.4537,1.4552,1.4582,1.4604,1.4625,1.467,1.4694,1.4712,1.472,1.4735,1.4728,1.4722,1.4736,1.4736,1.4737,1.474,1.4741,1.4729,1.4729,1.4729,0,1.4349,1.4387,1.4416,1.444,1.4459,1.4486,1.4507,1.4528,1.4571,1.4584,1.4588,1.4645,1.467,1.4702,1.4705,1.4718,1.4724,1.4724,1.4734,1.4735,1.4735,1.4739,1.474,1.4728,1.4728,1.4728,1.4728,0,1.437,1.4395,1.4407,1.4449,1.4469,1.4491,1.4523,1.454,1.4557,1.4579,1.4609,1.4639,1.4673,1.4682,1.4698,1.4717,1.4719,1.4728,1.4735,1.4734,1.4738,1.4739,1.4727,1.4727,1.4727,1.4728,0,0,1.4354,1.4411,1.4415,1.4434,1.4476,1.4496,1.4519,1.4552,1.4566,1.4594,1.4614,1.4652,1.4661,1.4681,1.47,1.4712,1.4717,1.472,1.4721,1.4719,1.474,1.4733,1.4734,1.4727,1.4727,1.4728,1.4737,0,1.436,1.4403,1.443,1.4462,1.4486,1.4512,1.4532,1.4559,1.458,1.4604,1.4627,1.4653,1.4663,1.4675,1.4688,1.4714,1.4722,1.4713,1.4746,1.4747,1.4737,1.4736,1.4729,1.4736,1.4739,1.4739,1.4739,0,1.4374,1.4402,1.4437,1.4476,1.4487,1.4505,1.4537,1.4559,1.459,1.4605,1.4627,1.4647,1.4671,1.4676,1.4711,1.4704,1.4719,1.4733,1.4734,1.4739,1.4743,1.4741,1.4739,1.474,1.4742,1.4742,1.4741,0,1.4359,1.4406,1.4433,1.4448,1.4494,1.4506,1.4526,1.4557,1.4575,1.4603,1.4615,1.4646,1.4662,1.4685,1.4712,1.4713,1.4744,1.475,1.4756,1.4756,1.4762,1.4762,1.4763,1.4771,1.4771,1.4771,1.4771,0,1.4364,1.4384,1.4427,1.4443,1.4466,1.4496,1.4519,1.454,1.4568,1.4589,1.4612,1.4631,1.4665,1.4688,1.4709,1.4735,1.4742,1.4754,1.476,1.4753,1.4751,1.4763,1.4763,1.4771,1.4771,1.4771,1.4771,0,1.4352,1.4381,1.4412,1.4453,1.4464,1.4479,1.4514,1.4531,1.4554,1.458,1.4587,1.4623,1.4651,1.468,1.4718,1.4732,1.4757,1.4764,1.4746,1.475,1.4754,1.4753,1.4764,1.4767,1.4772,1.4772,1.4772,0,1.4353,1.4369,1.4412,1.4428,1.4448,1.4473,1.4491,1.4521,1.454,1.4577,1.4589,1.4619,1.4645,1.4688,1.4717,1.4746,1.4755,1.4756,1.4759,1.4751,1.4755,1.4754,1.4756,1.4755,1.4755,1.4755,1.4755,0,1.4352,1.4366,1.4392,1.4424,1.4445,1.4471,1.4498,1.4509,1.4544,1.4563,1.4593,1.4613,1.4652,1.4681,1.4714,1.4734,1.475,1.4754,1.4757,1.475,1.4739,1.4745,1.4744,1.4753,1.4754,1.4754,1.4754,1.4754,1.4348,1.4363,1.4396,1.4424,1.4447,1.4472,1.449,1.4514,1.4539,1.4574,1.459,1.4619,1.465,1.4696,1.4715,1.4738,1.4743,1.4747,1.4748,1.4749,1.4747,1.4735,1.4744,1.4744,1.4744,1.4744,1.4744,0,1.4348,1.4371,1.4396,1.4433,1.4455,1.4469,1.4499,1.4516,1.4542,1.457,1.4595,1.4628,1.4657,1.4688,1.4718,1.4731,1.4739,1.4738,1.4737,1.4742,1.4741,1.4736,1.4731,1.4731,1.4731,1.4731,1.4731,1.4731,1.4352,1.4379,1.4396,1.4435,1.4457,1.4487,1.4503,1.4525,1.4547,1.4584,1.4608,1.4628,1.4657,1.4689,1.4716,1.4724,1.4735,1.4731,1.4742,1.4741,1.4742,1.4743,1.4738,1.4733,1.4733,1.474,1.474,1.474]}]]